Location: Chuathbaluk
(61.5726°N, 159.2454°W)
Time: 09:03:07
(UTC+00:00)

N. Korean satellite - Visible Passes

Search period start: 27 October 2020 00:00
Search period end: 06 November 2020 00:00
Orbit: 452 x 505 km, 97.2° (Epoch: 26 October)

Date Brightness Start Highest point End Pass type
(mag) Time Alt. Az. Time Alt. Az. Time Alt. Az.
27 Oct 8.3 03:33:15 10° S 03:36:36 39° W 03:39:56 10° NNW visible
27 Oct 10.3 14:50:51 10° ENE 14:51:15 10° E 14:51:38 10° E visible
27 Oct 7.0 16:21:56 10° NNE 16:25:22 61° ESE 16:28:46 10° S visible
28 Oct 10.2 04:43:13 10° WSW 04:44:26 11° W 04:45:39 10° WNW visible
28 Oct 8.2 15:55:54 10° NNE 15:59:07 35° E 16:02:18 10° SSE visible
29 Oct 9.8 04:15:28 10° SW 04:18:00 18° W 04:20:30 10° NW visible
29 Oct 9.2 15:30:03 10° NE 15:32:48 22° E 15:35:30 10° SE visible
29 Oct 6.5 17:03:03 10° N 17:06:27 56° WNW 17:09:48 10° SW visible
30 Oct 8.9 03:48:31 10° SSW 03:51:38 29° W 03:54:44 10° NNW visible
30 Oct 9.9 15:04:34 10° NE 15:06:22 13° E 15:08:09 10° ESE visible
30 Oct 6.5 16:36:51 10° NNE 16:40:19 85° ESE 16:43:44 10° SSW visible
31 Oct 7.7 03:21:56 10° S 03:25:21 48° W 03:28:45 10° NNW visible
31 Oct 7.5 16:10:44 10° NNE 16:14:06 48° E 16:17:25 10° S visible
01 Nov 10.0 04:31:11 10° WSW 04:33:04 14° W 04:34:55 10° NW visible
01 Nov 8.7 15:44:45 10° NNE 15:47:48 28° E 15:50:49 10° SSE visible
01 Nov 6.8 17:18:01 10° N 17:21:17 41° WNW 17:24:32 10° SW visible
02 Nov 9.4 04:03:51 10° SW 04:06:38 22° W 04:09:24 10° NW visible
02 Nov 9.5 15:19:00 10° NE 15:21:24 18° E 15:23:49 10° SE visible
02 Nov 6.3 16:51:45 10° NNE 16:55:11 71° WNW 16:58:36 10° SSW visible
03 Nov 8.4 03:37:03 10° SSW 03:40:17 35° W 03:43:31 10° NNW visible
03 Nov 10.1 14:53:55 10° ENE 14:54:56 11° E 14:55:56 10° E visible
03 Nov 6.8 16:25:33 10° NNE 16:29:00 67° ESE 16:32:25 10° S visible
04 Nov 7.2 03:10:34 10° S 03:14:01 61° WSW 03:17:27 10° NNW visible
04 Nov 10.4 04:47:35 10° W 04:48:06 10° W 04:48:38 10° WNW visible
04 Nov 8.0 15:59:29 10° NNE 16:02:44 38° E 16:05:58 10° SSE visible
05 Nov 9.8 04:19:19 10° SW 04:21:37 17° W 04:23:55 10° NW visible
05 Nov 9.0 15:33:33 10° NE 15:36:23 23° E 15:39:12 10° SSE visible
05 Nov 6.6 17:06:37 10° N 17:09:59 51° WNW 17:13:20 10° SW visible
